Location: Unspecified
(54.8312°N, 0.0000°E)
Time: 01:15:33
(UTC+00:00)

ISS - Visible Passes

Search period start: 25 January 2021 00:00
Search period end: 04 February 2021 00:00
Orbit: 418 x 421 km, 51.6° (Epoch: 25 January)

Date Brightness Start Highest point End Pass type
(mag) Time Alt. Az. Time Alt. Az. Time Alt. Az.
25 Jan -1.8 16:57:50 10° SSW 17:00:22 20° SSE 17:02:55 10° ESE visible
25 Jan -3.2 18:33:27 10° WSW 18:36:42 44° S 18:37:00 42° SSE visible
25 Jan -0.2 20:09:58 10° W 20:09:58 10° W 20:09:58 10° W visible
26 Jan -2.8 17:46:15 10° SW 17:49:24 38° SSE 17:51:35 17° ESE visible
26 Jan -1.8 19:22:39 10° W 19:24:33 29° WSW 19:24:33 29° WSW visible
27 Jan -3.3 18:35:19 10° WSW 18:38:37 49° S 18:39:07 44° SSE visible
27 Jan -0.2 20:12:02 10° W 20:12:05 10° W 20:12:05 10° W visible
28 Jan -3.1 17:48:00 10° WSW 17:51:17 48° S 17:53:41 17° ESE visible
28 Jan -1.8 19:24:37 10° W 19:26:40 28° WSW 19:26:40 28° WSW visible
29 Jan -3.0 18:37:15 10° W 18:40:30 44° S 18:41:15 37° SSE visible
30 Jan -3.0 17:49:53 10° W 17:53:10 48° S 17:55:52 14° ESE visible
30 Jan -1.7 19:26:42 10° W 19:28:51 24° SW 19:28:51 24° SW visible
31 Jan -2.3 18:39:13 10° W 18:42:17 32° SSW 18:43:31 24° SSE visible
01 Feb -2.5 17:51:47 10° W 17:54:58 38° SSW 17:58:08 10° SE visible
01 Feb -1.2 19:29:05 10° WSW 19:31:10 15° SW 19:31:15 15° SSW visible
02 Feb -1.4 18:41:21 10° W 18:43:55 20° SSW 18:46:06 12° SSE visible
03 Feb -1.7 17:53:45 10° W 17:56:38 26° SSW 17:59:30 10° SSE visible
